Location: Jabiru
(12.6667°S, 132.8333°E)
Time: 15:12:45
(UTC+09:30)

ISS - Visible Passes

Search period start: 04 August 2020 00:00
Search period end: 14 August 2020 00:00
Orbit: 418 x 420 km, 51.6° (Epoch: 04 August)

Date Brightness Start Highest point End Pass type
(mag) Time Alt. Az. Time Alt. Az. Time Alt. Az.
12 Aug -0.9 06:24:52 10° SSE 06:26:34 13° SE 06:28:15 10° E visible
12 Aug -1.5 19:42:47 10° NNE 19:43:40 14° NNE 19:43:40 14° NNE visible
13 Aug -0.9 20:30:45 10° WNW 20:31:49 18° WNW 20:31:49 18° WNW visible
